Preview of NWS' New Version of Forecast
This preview is not operational and should not be used for support decisions.

Regional Weather Roundup (RWR)

Issued by National Weather Service (NWS)

                            
000
ASUS43 KTOP 202059
RWRKS 

WEATHER ROUNDUP FOR KANSAS
NATIONAL WEATHER SERVICE GOODLAND KS
400 PM CDT TUE AUG 20 2019

NOTE:  "FAIR" INDICATES FEW OR NO CLOUDS BELOW 12,000 FEET WITH NO
SIGNIFICANT WEATHER AND/OR OBSTRUCTIONS TO VISIBILITY.

KSZ001>006-013>018-027>032-041>047-202200-
NORTHWEST KANSAS
  
CITY           SKY/WX    TMP DP  RH WIND       PRES   REMARKS
GOODLAND       SUNNY     97  61  30 E9        29.98F HX  97           
HAYS           SUNNY    102  65  29 S7        30.05F HX 105           
HILL CITY      SUNNY    100  68  35 E8        29.94F HX 105           
RUSSELL        SUNNY    100  70  37 E7        29.92S HX 107           
$$

KSZ061>065-074>080-084>089-202200-
SOUTHWEST KANSAS
  
CITY           SKY/WX    TMP DP  RH WIND       PRES   REMARKS
DODGE CITY     SUNNY    104  57  21 SW16G28   29.96F HX 103           
GARDEN CITY    SUNNY    101  58  24 S21G31    29.95F HX 100           
GREAT BEND     SUNNY     99  74  44 S9        29.92F HX 110           
LIBERAL        SUNNY     98  52  21 S20       30.00F HX  95           
$$

KSZ066>073-081>083-090>101-202200-
SOUTHEAST KANSAS
  
CITY           SKY/WX    TMP DP  RH WIND       PRES   REMARKS
CHANUTE        SUNNY     96  75  50 S10       29.99F HX 108           
COFFEYVILLE    SUNNY     94  77  57 S8        29.97F HX 108           
HUTCHINSON     SUNNY    102  69  34 S14       29.92F HX 109           
MEDICINE LODGE   N/A    104  64  27 S18G24    29.90F HX 107           
NEWTON           N/A     93  75  55 S15       29.95F HX 104           
PARSONS        SUNNY     94  78  60 VRB7      30.00S HX 110           
WICHITA INTL   MOSUNNY  103  68  32 S18       29.92F HX 109           
WICHITA JABRA  SUNNY     97  73  45 S12G23    29.94F HX 107           
WICHITA MCCONL SUNNY    100  67  33 SE17      29.94F HX 105           
WINFIELD       SUNNY     97  73  45 S13G22    29.96  HX 107           
$$

KSZ007>012-019>026-033>040-048>060-102>105-202200-
NORTHEAST KANSAS
  
CITY           SKY/WX    TMP DP  RH WIND       PRES   REMARKS
CONCORDIA      SUNNY     94  77  57 E9        29.94F HX 108           
EMPORIA        SUNNY     95  77  55 S13       29.96F HX 109           
LAWRENCE       SUNNY     94  75  54 S15       29.96F HX 105           
MANHATTAN      SUNNY     96  80  59 E9        29.92F HX 116           
OLATHE IND     SUNNY     91  75  59 SE13      29.99F HX 101           
OLATHE EXE     SUNNY     90  77  65 S15G22    29.98F HX 103           
SALINA         SUNNY     98  74  45 SE10      29.92F HX 109           
TOPEKA BILLARD SUNNY     92  76  59 E16G26    29.96F HX 104           
TOPEKA FORBES  SUNNY     94  78  60 SE14      29.96F HX 110           
$$